KA0WKG Weather Reports


Display with metric or nautical units.
time (UTC)temp
F
wind
direction
speed
MPH
gust
MPH
rain 1hr
in
rain 24hr
in
rain mn
in
humidity
%
barometer
mb
20260906203506 90 131 10.0 23.0 0.00 0.01 0.00 40 1013.9
20260906202508 89 154 8.0 17.0 0.00 0.01 0.00 42 1014.1
20260906202007 89 146 9.0 28.0 0.00 0.01 0.00 42 1014.0
20260906201507 90 157 12.0 28.0 0.00 0.01 0.00 41 1014.2
20260906201006 90 172 7.0 17.0 0.00 0.01 0.00 44 1014.2
20260906200507 91 153 12.0 18.0 0.00 0.01 0.00 42 1014.3
20260906195507 90 178 12.0 18.0 0.00 0.01 0.00 43 1014.3
20260906195006 89 185 10.0 21.0 0.00 0.01 0.00 44 1014.4
20260906194507 89 170 13.0 21.0 0.00 0.01 0.00 43 1014.4
20260906194007 89 181 12.0 20.0 0.00 0.01 0.00 45 1014.5
20260906193508 88 176 11.0 18.0 0.00 0.01 0.00 46 1014.6
20260906192506 87 176 9.0 20.0 0.00 0.01 0.00 46 1014.8
20260906192007 88 161 12.0 22.0 0.00 0.01 0.00 46 1014.8
20260906191506 88 191 13.0 22.0 0.00 0.01 0.00 46 1015.1
20260906191007 88 155 13.0 22.0 0.00 0.01 0.00 46 1015.1
20260906190506 88 192 13.0 22.0 0.00 0.01 0.00 45 1015.2
20260906185506 87 186 12.0 23.0 0.00 0.01 0.00 46 1015.3
20260906185006 87 180 16.0 23.0 0.00 0.01 0.00 47 1015.4
20260906184506 87 209 10.0 23.0 0.00 0.01 0.00 47 1015.5
20260906184008 87 174 10.0 23.0 0.00 0.01 0.00 47 1015.5
20260906183506 87 181 14.0 23.0 0.00 0.01 0.00 47 1015.6
20260906183006 87 213 13.0 23.0 0.00 0.01 0.00 49 1015.6
20260906182007 85 168 16.0 23.0 0.00 0.01 0.00 50 1015.5
20260906181507 86 177 15.0 23.0 0.00 0.01 0.00 50 1015.7
20260906181006 85 165 16.0 24.0 0.00 0.01 0.00 51 1015.8
20260906180507 84 167 14.0 24.0 0.00 0.01 0.00 52 1015.9
20260906180006 84 162 18.0 24.0 0.00 0.01 0.00 54 1015.9
20260906175505 84 168 14.0 23.0 0.00 0.01 0.00 54 1016.0
20260906175005 83 172 13.0 22.0 0.00 0.01 0.00 55 1016.1
20260906174505 84 179 16.0 24.0 0.00 0.01 0.00 55 1016.1
20260906174006 83 195 16.0 24.0 0.00 0.01 0.00 55 1016.3
20260906173506 83 166 17.0 26.0 0.00 0.01 0.00 56 1016.3
20260906173006 83 180 16.0 28.0 0.00 0.01 0.00 57 1016.5
20260906172007 82 168 16.0 30.0 0.00 0.01 0.00 58 1016.6
20260906171506 81 172 17.0 26.0 0.00 0.01 0.00 58 1016.6
20260906171006 81 156 16.0 25.0 0.00 0.01 0.00 59 1016.9
20260906170506 81 172 15.0 25.0 0.00 0.01 0.00 62 1016.9
20260906165507 81 157 15.0 30.0 0.00 0.01 0.00 62 1016.8
20260906165006 79 181 20.0 30.0 0.00 0.01 0.00 64 1016.9
20260906164506 79 185 17.0 24.0 0.00 0.01 0.00 66 1017.0
20260906164006 80 170 16.0 24.0 0.00 0.01 0.00 63 1017.1
20260906163507 79 159 17.0 24.0 0.00 0.01 0.00 65 1017.3
20260906163006 79 164 17.0 24.0 0.00 0.01 0.00 64 1017.4
20260906162506 79 149 14.0 23.0 0.00 0.01 0.00 65 1017.6
20260906162006 79 152 12.0 18.0 0.00 0.01 0.00 64 1017.6
20260906161506 79 175 13.0 18.0 0.00 0.01 0.00 66 1017.8
20260906160505 78 157 6.0 12.0 0.00 0.01 0.00 68 1017.8
20260906160006 77 167 7.0 15.0 0.00 0.01 0.00 69 1017.8
20260906155505 77 187 10.0 15.0 0.00 0.01 0.00 72 1017.8
20260906155006 77 152 8.0 12.0 0.00 0.01 0.00 70 1017.8
20260906152005 75 159 7.0 12.0 0.00 0.01 0.00 74 1017.6
20260906151505 75 166 7.0 12.0 0.00 0.01 0.00 74 1017.6
20260906151005 74 176 6.0 12.0 0.00 0.01 0.00 77 1017.5
20260906150506 73 150 7.0 14.0 0.00 0.01 0.00 78 1017.5
20260906150006 74 153 9.0 14.0 0.00 0.01 0.00 76 1017.5
20260906145505 73 177 7.0 14.0 0.00 0.01 0.00 79 1017.5
20260906144505 71 143 6.0 10.0 0.00 0.01 0.00 82 1017.6
20260906143505 71 138 6.0 12.0 0.00 0.01 0.00 81 1017.6
20260906143006 71 131 6.0 12.0 0.00 0.01 0.00 80 1017.5
20260906142507 71 160 8.0 14.0 0.00 0.01 0.00 80 1017.3
20260906142005 70 153 8.0 14.0 0.00 0.01 0.00 82 1017.1
20260906141505 70 153 9.0 13.0 0.00 0.01 0.00 82 1017.1
20260906141005 69 152 7.0 10.0 0.00 0.01 0.00 83 1017.1
20260906140505 69 148 5.0 7.0 0.00 0.01 0.00 84 1017.4
20260906140005 69 161 5.0 7.0 0.00 0.01 0.00 84 1017.4
20260906135505 68 143 5.0 9.0 0.00 0.01 0.00 85 1017.3
20260906135004 68 89 3.0 9.0 0.00 0.01 0.00 85 1017.3
20260906134504 68 143 4.0 9.0 0.00 0.01 0.00 85 1017.2
20260906134005 68 177 4.0 12.0 0.00 0.01 0.00 87 1017.1
20260906133505 67 189 3.0 12.0 0.00 0.01 0.00 88 1016.8
20260906133006 66 178 8.0 12.0 0.00 0.01 0.00 89 1016.7
20260906132505 65 167 7.0 14.0 0.00 0.01 0.00 92 1016.8
20260906132004 65 187 7.0 14.0 0.00 0.01 0.00 93 1016.7
20260906131504 64 181 9.0 12.0 0.00 0.01 0.00 94 1016.4
20260906130506 63 188 6.0 9.0 0.00 0.01 0.00 93 1016.7
20260906130005 63 179 6.0 10.0 0.00 0.01 0.00 93 1016.6
20260906125505 63 192 7.0 12.0 0.00 0.01 0.01 93 1016.3
20260906125004 63 188 9.0 12.0 0.00 0.01 0.01 92 1016.2
20260906124506 63 182 8.0 13.0 0.00 0.01 0.01 93 1016.1
20260906124004 63 189 9.0 13.0 0.00 0.01 0.01 93 1016.1
20260906123505 63 192 9.0 13.0 0.00 0.01 0.01 92 1016.1
20260906123007 63 188 7.0 13.0 0.00 0.01 0.01 92 1016.0
20260906122505 63 191 9.0 13.0 0.00 0.01 0.01 92 1015.9
20260906122007 62 188 10.0 14.0 0.00 0.01 0.01 92 1015.8
20260906121505 63 187 10.0 14.0 0.00 0.01 0.01 92 1015.9
20260906120505 62 194 8.0 10.0 0.00 0.01 0.01 92 1015.9
20260906120005 63 201 8.0 10.0 0.00 0.01 0.01 92 1016.1
20260906115506 63 209 7.0 10.0 0.00 0.01 0.01 92 1016.0
20260906115004 63 186 7.0 13.0 0.00 0.01 0.01 92 1016.0
20260906114504 63 178 9.0 13.0 0.00 0.01 0.01 92 1016.0
20260906114006 63 169 9.0 12.0 0.00 0.01 0.01 92 1016.0
20260906113505 63 163 6.0 9.0 0.00 0.01 0.01 92 1016.2
20260906113006 63 145 6.0 10.0 0.00 0.01 0.01 92 1016.1
20260906112505 63 160 6.0 10.0 0.00 0.01 0.01 92 1016.1
20260906112005 63 154 7.0 12.0 0.00 0.01 0.01 93 1016.1
20260906111505 63 151 7.0 12.0 0.00 0.01 0.01 93 1016.1
20260906111005 63 150 7.0 12.0 0.00 0.01 0.01 93 1016.2
20260906110004 63 159 8.0 12.0 0.00 0.01 0.01 93 1016.3
20260906105004 63 152 7.0 10.0 0.00 0.01 0.01 94 1016.4
20260906104005 63 151 6.0 8.0 0.00 0.01 0.01 94 1016.4
20260906103504 63 146 7.0 8.0 0.00 0.01 0.01 94 1016.5
20260906102504 63 101 5.0 8.0 0.00 0.01 0.01 92 1016.3
20260906102005 63 86 6.0 9.0 0.00 0.01 0.01 92 1016.2
20260906101004 63 43 7.0 9.0 0.00 0.01 0.01 91 1016.2
20260906100504 64 58 6.0 8.0 0.00 0.01 0.01 91 1016.2
20260906095504 64 46 7.0 9.0 0.00 0.01 0.01 90 1016.1
20260906095004 63 96 5.0 9.0 0.00 0.01 0.01 91 1015.9
20260906094507 64 99 6.0 9.0 0.00 0.01 0.01 90 1015.9
20260906094004 64 88 6.0 13.0 0.00 0.01 0.01 90 1015.8
20260906093504 64 126 7.0 13.0 0.00 0.01 0.01 90 1015.6
20260906093004 64 121 9.0 12.0 0.00 0.01 0.01 90 1015.4
20260906092504 64 126 8.0 13.0 0.00 0.01 0.01 89 1015.6
20260906092005 64 103 9.0 13.0 0.00 0.01 0.01 89 1015.8
20260906091504 64 111 7.0 12.0 0.00 0.01 0.01 89 1015.9
20260906091005 64 149 6.0 9.0 0.00 0.01 0.01 88 1016.0
20260906090504 64 142 6.0 13.0 0.00 0.01 0.01 88 1016.0
20260906090005 64 125 7.0 15.0 0.00 0.01 0.01 88 1015.9
20260906085504 64 92 9.0 16.0 0.00 0.01 0.01 88 1015.9
20260906085005 64 82 11.0 17.0 0.00 0.01 0.01 87 1015.8
20260906084504 64 86 12.0 20.0 0.00 0.01 0.01 87 1015.7
20260906084005 64 78 15.0 20.0 0.00 0.01 0.01 87 1015.6
20260906083504 64 85 12.0 20.0 0.00 0.01 0.01 86 1015.8
20260906082004 65 73 12.0 20.0 0.00 0.01 0.01 83 1015.7
20260906081504 66 64 14.0 26.0 0.00 0.01 0.01 82 1015.8
20260906080504 66 53 16.0 30.0 0.00 0.01 0.01 79 1015.9
20260906080004 66 49 21.0 30.0 0.00 0.01 0.01 78 1016.0
20260906075505 66 41 21.0 29.0 0.00 0.01 0.01 79 1016.0
20260906075004 66 40 18.0 28.0 0.00 0.01 0.01 79 1016.2
20260906074504 66 38 17.0 28.0 0.00 0.01 0.01 79 1016.3
20260906074005 65 40 17.0 24.0 0.00 0.01 0.01 80 1016.4
20260906073505 66 40 16.0 32.0 0.00 0.01 0.01 80 1016.4
20260906073004 66 44 19.0 32.0 0.00 0.01 0.01 80 1016.6
20260906072505 66 38 16.0 30.0 0.00 0.01 0.01 80 1016.7
20260906072009 66 36 18.0 30.0 0.00 0.01 0.01 78 1016.7
20260906071509 66 37 18.0 30.0 0.00 0.01 0.01 78 1016.7
20260906071011 66 34 17.0 29.0 0.00 0.01 0.01 80 1016.8
20260906070509 66 24 18.0 31.0 0.00 0.01 0.01 81 1016.7
20260906070009 66 24 21.0 32.0 0.00 0.01 0.01 81 1016.6
20260906065511 66 27 23.0 32.0 0.00 0.01 0.01 79 1016.6
20260906065010 66 27 21.0 29.0 0.00 0.01 0.01 78 1016.8
20260906064509 66 18 18.0 32.0 0.00 0.01 0.01 79 1016.8
20260906064010 67 19 16.0 32.0 0.00 0.01 0.01 78 1016.9
20260906063510 67 16 21.0 38.0 0.00 0.01 0.01 77 1016.7
20260906063010 66 20 22.0 41.0 0.01 0.01 0.01 78 1016.9
20260906062009 65 32 19.0 38.0 0.01 0.01 0.01 83 1017.2
20260906061510 65 15 21.0 37.0 0.01 0.01 0.01 85 1017.0
20260906061009 65 14 22.0 37.0 0.01 0.01 0.01 86 1017.4
20260906060509 64 7 24.0 36.0 0.01 0.01 0.01 86 1017.5
20260906060010 64 5 23.0 39.0 0.01 0.01 0.01 89 1017.6
20260906055509 64 3 24.0 40.0 0.01 0.01 0.01 90 1017.5
20260906055011 64 357 26.0 45.0 0.01 0.01 0.01 90 1017.8
20260906054009 65 348 28.0 41.0 0.01 0.01 0.01 90 1017.5
20260906053509 66 353 25.0 35.0 0.01 0.01 0.01 90 1017.4
20260906052508 67 331 21.0 36.0 0.00 0.00 0.00 88 1017.5
20260906052008 69 330 25.0 44.0 0.00 0.00 0.00 85 1017.5
20260906051508 72 325 28.0 44.0 0.00 0.00 0.00 74 1017.7
20260906050509 75 288 7.0 20.0 0.00 0.00 0.00 66 1016.2
20260906050008 75 324 7.0 21.0 0.00 0.00 0.00 67 1016.1
20260906045510 75 333 14.0 21.0 0.00 0.00 0.00 64 1015.9
20260906045009 77 347 1.0 9.0 0.00 0.00 0.00 63 1015.3
20260906044008 76 146 7.0 9.0 0.00 0.00 0.00 62 1014.7
20260906043009 76 143 9.0 12.0 0.00 0.00 0.00 63 1014.5
20260906042510 76 140 9.0 12.0 0.00 0.00 0.00 62 1014.5
20260906042008 76 139 8.0 10.0 0.00 0.00 0.00 62 1014.5
20260906041508 76 137 7.0 10.0 0.00 0.00 0.00 62 1014.3
20260906041010 76 127 8.0 10.0 0.00 0.00 0.00 62 1014.4
20260906040508 77 110 8.0 13.0 0.00 0.00 0.00 61 1014.6
20260906040009 77 98 9.0 13.0 0.00 0.00 0.00 61 1014.7
20260906035508 77 97 9.0 13.0 0.00 0.00 0.00 60 1014.7
20260906034509 78 95 9.0 13.0 0.00 0.00 0.00 59 1014.7
20260906034008 78 98 9.0 13.0 0.00 0.00 0.00 58 1014.7
20260906033508 78 102 9.0 12.0 0.00 0.00 0.00 58 1014.7
20260906033008 78 97 8.0 12.0 0.00 0.00 0.00 58 1014.7
20260906032008 77 99 9.0 15.0 0.00 0.00 0.00 59 1014.6
20260906031508 77 89 9.0 15.0 0.00 0.00 0.00 60 1014.5
20260906031008 77 85 12.0 15.0 0.00 0.00 0.00 60 1014.2
20260906030508 77 77 9.0 16.0 0.00 0.00 0.00 60 1014.0
20260906030008 76 76 10.0 16.0 0.00 0.00 0.00 62 1014.0
20260906025508 75 67 9.0 14.0 0.00 0.00 0.00 65 1014.0
20260906024508 75 74 8.0 12.0 0.00 0.00 0.00 66 1013.9
20260906024008 75 75 7.0 9.0 0.00 0.00 0.00 66 1014.0
20260906023508 75 69 9.0 9.0 0.00 0.00 0.00 65 1014.1
20260906023008 76 62 8.0 9.0 0.00 0.00 0.00 65 1014.2
20260906022509 76 69 7.0 9.0 0.00 0.00 0.00 64 1014.0
20260906022008 76 72 8.0 9.0 0.00 0.00 0.00 64 1013.9
20260906021508 77 71 7.0 10.0 0.00 0.00 0.00 62 1013.9
20260906020508 78 66 8.0 9.0 0.00 0.00 0.00 61 1013.9
20260906020008 79 58 7.0 8.0 0.00 0.00 0.00 59 1013.8
20260906015008 80 41 6.0 9.0 0.00 0.00 0.00 55 1013.8
20260906014508 80 94 7.0 9.0 0.00 0.00 0.00 54 1013.7
20260906014007 81 109 7.0 9.0 0.00 0.00 0.00 53 1013.6
20260906013008 82 120 8.0 12.0 0.00 0.00 0.00 51 1013.5
20260906012508 82 127 9.0 12.0 0.00 0.00 0.00 50 1013.5
20260906012007 82 126 9.0 12.0 0.00 0.00 0.00 50 1013.5
20260906011507 82 126 9.0 13.0 0.00 0.00 0.00 49 1013.4
20260906011008 83 125 9.0 13.0 0.00 0.00 0.00 49 1013.5
20260906010509 83 122 9.0 13.0 0.00 0.00 0.00 49 1013.6
20260906005507 83 117 8.0 12.0 0.00 0.00 0.00 49 1013.7
20260906005008 83 110 8.0 10.0 0.00 0.00 0.00 48 1013.8
20260906004509 84 108 7.0 10.0 0.00 0.00 0.00 47 1013.9
20260906004008 84 117 7.0 10.0 0.00 0.00 0.00 46 1013.9
20260906003508 85 123 7.0 13.0 0.00 0.00 0.00 44 1013.8
20260906003008 85 135 9.0 14.0 0.00 0.00 0.00 42 1013.7
20260906002508 85 134 10.0 14.0 0.00 0.00 0.00 42 1013.6
20260906002008 86 132 12.0 16.0 0.00 0.00 0.00 42 1013.4
20260906001507 86 135 12.0 18.0 0.00 0.00 0.00 40 1013.3
20260906001007 86 137 13.0 18.0 0.00 0.00 0.00 39 1013.2
20260906000007 87 147 11.0 21.0 0.00 0.00 0.00 38 1013.2
20260905235507 87 146 12.0 25.0 0.00 0.00 0.00 38 1013.0
20260905235007 87 147 14.0 25.0 0.00 0.00 0.00 38 1012.9
20260905234509 87 145 13.0 20.0 0.00 0.00 0.00 38 1012.5
20260905234008 88 146 15.0 22.0 0.00 0.00 0.00 37 1012.2
20260905233508 88 144 16.0 25.0 0.00 0.00 0.00 37 1012.1
20260905233008 88 143 16.0 25.0 0.00 0.00 0.00 36 1012.1
20260905232507 89 145 13.0 32.0 0.00 0.00 0.00 36 1012.1
20260905231008 90 161 17.0 31.0 0.00 0.00 0.00 33 1012.3
20260905230507 90 148 17.0 31.0 0.00 0.00 0.00 32 1012.2
20260905230008 90 159 18.0 31.0 0.00 0.00 0.00 32 1012.2
20260905225508 90 150 14.0 26.0 0.00 0.00 0.00 32 1011.9
20260905225007 90 151 16.0 26.0 0.00 0.00 0.00 32 1011.7
20260905224508 90 153 16.0 32.0 0.00 0.00 0.00 33 1011.7
20260905223507 91 154 20.0 31.0 0.00 0.00 0.00 32 1011.9
20260905223007 92 155 19.0 29.0 0.00 0.00 0.00 32 1012.0
20260905222507 93 154 17.0 31.0 0.00 0.00 0.00 32 1012.1
20260905222007 94 150 20.0 31.0 0.00 0.00 0.00 29 1011.9
20260905221507 95 145 18.0 32.0 0.00 0.00 0.00 28 1012.0
20260905221007 95 148 18.0 33.0 0.00 0.00 0.00 28 1011.8
20260905220507 95 136 16.0 33.0 0.00 0.00 0.00 28 1011.7
20260905215507 95 139 18.0 26.0 0.00 0.00 0.00 27 1011.9
20260905215007 94 141 16.0 23.0 0.00 0.00 0.00 30 1012.0
20260905214507 93 140 16.0 28.0 0.00 0.00 0.00 31 1012.0
20260905214007 93 134 15.0 28.0 0.00 0.00 0.00 31 1012.0
20260905213507 95 152 14.0 26.0 0.00 0.00 0.00 30 1012.1
20260905213007 94 141 18.0 26.0 0.00 0.00 0.00 30 1012.2
20260905212507 93 126 13.0 22.0 0.00 0.00 0.00 33 1012.3
20260905211507 93 109 13.0 22.0 0.00 0.00 0.00 35 1012.5
20260905211007 93 119 14.0 22.0 0.00 0.00 0.00 34 1012.4
20260905210007 93 122 16.0 22.0 0.00 0.00 0.00 36 1012.7
20260905205506 93 120 14.0 22.0 0.00 0.00 0.00 35 1012.8
20260905205007 93 121 17.0 22.0 0.00 0.00 0.00 35 1012.9
20260905204507 93 126 15.0 22.0 0.00 0.00 0.00 35 1012.9
20260905204007 93 131 14.0 23.0 0.00 0.00 0.00 35 1013.0